CDT,Max TemperatureF,Mean TemperatureF,Min TemperatureF,Max Dew PointF,MeanDew PointF,Min DewpointF,Max Humidity, Mean Humidity, Min Humidity, Max Sea Level PressureIn, Mean Sea Level PressureIn, Min Sea Level PressureIn, Max VisibilityMiles, Mean VisibilityMiles, Min VisibilityMiles, Max Wind SpeedMPH, Mean Wind SpeedMPH, Max Gust SpeedMPH,PrecipitationIn, CloudCover, Events, WindDirDegrees
2013-3-1,15,5,-5,14,1,-11,100,87,77,30.39,30.34,30.24,10,8,0,10,6,,0.00,1,Fog-Rain-Snow,66
2013-3-2,28,14,1,27,17,0,100,92,80,30.24,30.08,29.99,10,9,1,15,8,,0.00,5,Snow,146
2013-3-3,24,22,21,25,24,19,100,99,93,29.98,29.85,29.76,10,4,0,22,10,26,0.17,8,Fog-Rain-Snow,122
2013-3-4,24,22,19,25,22,19,100,98,93,30.13,29.84,29.73,7,2,0,26,20,32,0.45,7,Rain-Snow,78
2013-3-5,19,12,5,19,11,1,100,90,79,30.39,30.32,30.13,10,9,3,22,16,29,0.03,7,Rain-Snow,350
2013-3-6,15,8,0,14,5,-4,100,88,67,30.40,30.33,30.21,10,10,5,21,5,26,0.00,7,Snow,147
2013-3-7,23,16,8,23,15,7,100,94,85,30.21,30.13,30.08,10,8,1,22,16,26,0.00,8,,146
2013-3-8,26,19,12,25,17,10,100,91,86,30.18,30.13,30.04,10,7,2,13,9,,0.01,5,Snow,247
2013-3-9,26,19,10,25,18,9,100,92,85,30.10,29.95,29.88,10,7,1,25,7,30,0.10,6,Snow,338
2013-3-10,19,10,0,14,7,-2,100,87,79,30.27,30.17,30.04,10,9,2,15,10,,0.00,3,Snow,319
2013-3-11,21,10,0,18,11,-4,100,91,79,30.06,29.87,29.78,10,6,1,13,6,,0.20,8,Rain-Snow,150
2013-3-12,19,8,-5,18,11,-9,100,87,73,30.29,30.14,29.89,10,8,2,26,15,31,0.09,4,Rain-Snow,345
2013-3-13,23,4,-16,19,0,-22,100,85,70,30.29,30.15,29.95,10,8,0,20,8,26,0.00,6,Rain-Snow,148
2013-3-14,26,16,5,25,14,1,100,90,80,30.14,30.05,29.96,10,8,0,20,8,25,0.00,2,Fog,16
2013-3-15,19,5,-9,16,2,-15,92,83,77,30.17,30.10,30.04,10,5,0,22,16,26,4.10,8,Rain-Snow,30
2013-3-16,8,-3,-14,0,-9,-20,85,78,67,30.24,30.20,30.16,10,9,4,13,8,,0.00,3,,314
2013-3-17,15,1,-13,14,1,-20,100,86,70,30.21,29.86,29.55,9,3,0,29,15,32,0.08,7,Rain-Snow,138
2013-3-18,15,4,-9,14,3,-15,100,83,71,29.98,29.74,29.53,10,4,1,31,18,39,1.69,5,Rain-Snow,330
2013-3-19,12,0,-11,5,-4,-18,85,78,67,30.33,30.16,29.98,10,9,2,16,10,,0.01,4,Snow,311
2013-3-20,14,-1,-16,5,-8,-22,85,76,57,30.33,30.27,30.15,10,10,9,14,8,,0.00,0,,321
2013-3-21,15,-2,-18,9,-7,-26,92,79,70,30.15,30.08,30.05,10,9,5,12,4,,0.00,0,,68
2013-3-22,19,2,-14,12,-2,-20,92,79,62,30.12,30.08,30.05,10,9,3,10,5,,0.00,0,,23
2013-3-23,21,12,3,19,10,0,100,87,78,30.19,30.16,30.13,10,8,2,12,6,,0.02,7,Rain-Snow,341
2013-3-24,24,17,10,19,16,9,100,92,80,30.29,30.21,30.16,10,9,3,20,12,22,0.00,8,Rain-Snow,3
2013-3-25,21,8,-5,14,10,-9,93,86,68,30.36,30.33,30.29,10,10,6,14,9,,0.00,4,Snow,325
2013-3-26,15,2,-11,16,-2,-17,100,86,71,30.32,30.28,30.24,10,6,0,9,4,,0.00,4,Fog-Snow,136
2013-3-27,24,8,-9,23,5,-13,100,88,77,30.27,30.24,30.21,10,10,1,10,4,,0.00,4,Snow,112
2013-3-28,26,16,5,25,16,1,100,96,85,30.22,30.21,30.20,10,2,0,10,4,,0.00,7,Fog-Rain-Snow,169
2013-3-29,30,22,14,30,22,10,100,98,86,30.22,30.10,29.98,5,2,0,7,4,,0.00,8,Fog-Rain,193
2013-3-30,32,24,15,32,25,16,100,98,87,29.99,29.95,29.88,10,6,2,16,7,,0.00,2,Snow,283
2013-3-31,32,29,26,30,27,23,100,92,86,29.96,29.92,29.89,10,10,9,28,19,34,0.00,8,Rain,351